Regional Weather Roundup
Issued by NWS

Home | Current Version | Previous Version | Graphics & Text | Print | Product List | Glossary On
Versions: 1 2 3 4 5 6 7 8 9 10 11 12 13 14 15 16 17 18 19 20 21 22 23 24 25 26 27 28 29 30 31 32 33 34 35 36 37 38 39 40 41 42 43 44 45 46 47 48 49 50
189
ASUS43 KLSX 261657
RWRMO

WEATHER SUMMARY FOR MISSOURI
NATIONAL WEATHER SERVICE SPRINGFIELD MO
1200 PM CDT SAT MAY 26 2018

NOTE: "FAIR" INDICATES FEW OR NO CLOUDS BELOW 12,000 FEET WITH NO
       SIGNIFICANT WEATHER AND/OR OBSTRUCTIONS TO VISIBILITY.
       CURRENT SKY AND/OR WEATHER CONDITIONS ARE NOT AVAILABLE FOR
       CHILLICOTHE AND FARMINGTON.

MOZ001>031-035>038-043-044-053-054-261800-
...NORTHERN AND WESTERN MISSOURI...

CITY           SKY/WX    TMP DP  RH WIND       PRES   REMARKS
KANSAS CTY INT MOSUNNY   87  71  58 SW8       29.83F HX  93
LEE`S SUMMIT   SUNNY     86  73  65 W10       29.84F HX  93
ST JOSEPH      SUNNY     93  69  45 SW9G17    29.79F HX  98
CHILLICOTHE      N/A     91  71  51 VRB7      29.79F HX  97

$$
MOZ066>068-077>081-088>096-101>105-261800-
...SOUTHWEST MISSOURI...

CITY           SKY/WX    TMP DP  RH WIND       PRES   REMARKS
SPRINGFIELD    SUNNY     85  67  54 NW3       29.90S
JOPLIN         SUNNY     84  69  60 W6        29.89F
BRANSON        MOSUNNY   81  72  74 NE5       29.92F

$$
MOZ032>034-039>042-045>050-055>058-069>072-261800-
...CENTRAL MISSOURI...

CITY           SKY/WX    TMP DP  RH WIND       PRES   REMARKS
COLUMBIA       NOT AVBL
JEFFERSON CITY SUNNY     83  69  62 S6        29.84F
ROLLA          SUNNY     81  69  67 SW3       29.89F
SEDALIA        SUNNY     85  71  63 SW7       29.86S HX  90
WARRENSBURG    SUNNY     86  70  58 SW7       29.84S HX  90

$$
MOZ051-052-059>065-261800-
...EAST CENTRAL MISSOURI...

CITY           SKY/WX    TMP DP  RH WIND       PRES   REMARKS
ST LOUIS INTL  MOSUNNY   85  68  56 SW5       29.85S

$$
MOZ072>076-082>087-097>100-106>115-261800-
...SOUTH CENTRAL AND SOUTHEAST MISSOURI...

CITY           SKY/WX    TMP DP  RH WIND       PRES   REMARKS
CAPE GIRARDEAU FAIR      81  68  64 VRB6      29.87S
POPLAR BLUFF   FAIR      79  72  79 S5        29.87F
WEST PLAINS    CLOUDY    80  68  66 VRB3      29.91F

$$




USA.gov is the U.S. government's official web portal to all federal, state and local government web resources and services.